Regional Weather Roundup
Issued by NWS

Home | Current Version | Previous Version | Graphics & Text | Print | Product List | Glossary On
Versions: 1 2 3 4 5 6 7 8 9 10 11 12 13 14 15 16 17 18 19 20 21 22 23 24 25 26 27 28 29 30 31 32 33 34 35 36 37 38 39 40 41 42 43 44 45 46 47 48 49 50
000
ASUS45 KSLC 200710
RWRUT

UTAH REGIONAL WEATHER ROUNDUP
NATIONAL WEATHER SERVICE SALT LAKE CITY UT
100 AM MDT MON OCT 20 2014

UTZ001>011-023>025-200800-

NORTHERN UTAH

CITY           SKY/WX    TMP DP  RH WIND       PRES   REMARKS
BRIGHAM CITY   CLEAR     47  38  72 NE5       30.05R
HILL AFB       CLEAR     55  33  43 E14       30.05F
LOGAN          CLEAR     43  35  73 CALM      30.06R
OGDEN          CLEAR     56  33  42 S12       30.03F
PROVO AIRPORT  CLEAR     48  39  71 NW5       30.07S
SALT LAKE CITY CLEAR     52  40  63 SE9       30.03F
VERNAL         CLEAR     47  32  56 W5        30.13R
WENDOVER       CLEAR     48  34  57 CALM      30.04S
HEBER CITY     CLEAR     37  32  81 CALM      30.14R
WEST JORDAN    CLEAR     52  41  66 S3        30.06F

$$

UTZ012>022-026-027-200800-

SOUTHERN/CENTRAL UTAH

CITY           SKY/WX    TMP DP  RH WIND       PRES   REMARKS
BLANDING       MOCLDY    48  39  72 N10       30.23F
BRYCE CANYON   CLEAR     36  31  82 W5        30.24R WCI  32
CEDAR CITY     PTCLDY    50  37  61 VRB3      30.09S
DELTA          CLEAR     51  34  52 NE6       30.05S
HANKSVILLE       N/A     46  32  57 E3        30.10R
MILFORD        CLEAR     51  33  50 W9        30.05F
MOAB/CYNLANDS  CLEAR     53  34  48 CALM      30.07R
PRICE          CLEAR     50  30  46 N8        30.13S
ST GEORGE      SUNNY     64  34  32 SE7       29.96R

$$

REGIONAL REPORTS     COLORADO/ARIZONA

CITY           SKY/WX    TMP DP  RH WIND       PRES   REMARKS
CRAIG, CO      CLEAR     37  30  75 CALM      30.19R
GRAND JUNCTION CLEAR     51  33  50 E6        30.11R
RIFLE          PTCLDY    45  36  70 SE5       30.16R
MONTROSE       PTCLDY    51  40  65 SE8       30.18R
CORTEZ         MOCLDY    45  42  89 CALM      30.19S
PAGE, AZ       NOT AVBL
GRAND CANYON   CLEAR     42  35  76 CALM      30.17F
KINGMAN        CLEAR     56  43  61 E5        29.97S
FLAGSTAFF      CLEAR     38  34  85 CALM      30.18S

$$

REGIONAL REPORTS    NEVADA/IDAHO/WYOMING

CITY           SKY/WX    TMP DP  RH WIND       PRES   REMARKS
LAS VEGAS, NV  CLEAR     72  38  29 SW5       29.84R
ELY            CLEAR     42  29  59 S13       30.12R
ELKO           CLEAR     49  29  46 VRB6      30.00R
POCATELLO, ID  CLEAR     40  33  76 NW6       30.04S
BURLEY         CLEAR     48  35  60 E5        29.98R
EVANSTON, WY   CLEAR     47  27  45 S6        30.19S
ROCK SPRINGS   CLEAR     48  28  46 CALM      30.18R
KEMMERER       CLEAR     36  28  75 N10       30.21R WCI  28

$$



USA.gov is the U.S. government's official web portal to all federal, state and local government web resources and services.